Miscellaneous Local Product
Issued by NWS Hastings, NE

Home | Current Version | Previous Version | Graphics & Text | Print | Product List | Glossary On
Versions: 1 2 3 4 5 6 7 8 9 10 11 12 13 14 15 16 17 18 19 20 21 22 23 24 25 26 27 28 29 30 31 32 33 34 35 36 37 38 39 40 41 42 43 44 45 46 47 48 49 50
000
AXUS43 KGID 170302
MISGRI

GID CWA HOURLY WEATHER ROUNDUP
NATIONAL WEATHER SERVICE HASTINGS NE
1000 PM CDT TUE SEP 16 2014

NOTE: "FAIR" INDICATES FEW OR NO CLOUDS BELOW 12,000 FEET WITH NO
SIGNIFICANT WEATHER AND/OR OBSTRUCTIONS TO VISIBILITY.

...SOUTH CENTRAL NEBRASKA...

CITY           SKY/WX    TMP DP  RH WIND       PRES   REMARKS
GRAND ISLAND   CLEAR     59  53  80 S7        30.00S
HASTINGS       CLEAR     59  50  72 SE6       30.01S
KEARNEY        CLEAR     55  52  88 E5        30.01R
ORD            CLEAR     54  52  93 CALM      29.97S
YORK           CLOUDY    61  54  77 S6        30.01F
AURORA         CLEAR     58  52  79 S6        30.01S
LEXINGTON      CLEAR     60  57  89 SE6       30.00R
HOLDREGE       CLEAR     57  54  89 SE6       30.00S
HEBRON         PTCLDY    57  52  83 CALM      30.01S

...NEBRASKA PANHANDLE...

CITY           SKY/WX    TMP DP  RH WIND       PRES   REMARKS
CHADRON        CLEAR     63  47  55 CALM      29.95R
ALLIANCE       CLEAR     59  44  57 E6        30.00R
SCOTTSBLUFF    CLEAR     62  49  62 E10       29.99R
SIDNEY         CLEAR     60  45  57 S7        30.04S

...WESTERN AND NORTH CENTRAL NEBRASKA...

CITY           SKY/WX    TMP DP  RH WIND       PRES   REMARKS
VALENTINE      PTCLDY    57  53  86 CALM      29.94S
AINSWORTH      CLEAR     60  56  86 S8        29.95S
ONEILL         CLEAR     59  57  91 S9        29.96F
BROKEN BOW     CLEAR     55  53  93 SE6       29.98F
IMPERIAL       CLEAR     59  53  80 SE9       29.99F
NORTH PLATTE   CLEAR     56  54  93 E6        29.99R
MCCOOK         CLEAR     64  59  83 E9        29.98R

...EASTERN NEBRASKA...

CITY           SKY/WX    TMP DP  RH WIND       PRES   REMARKS
NORFOLK        PTCLDY    61  50  67 S10       29.99S
SO SIOUX CITY  CLOUDY    58  52  80 SE6       30.01S
TEKAMAH        CLOUDY    60  54  80 SE3       30.01F
ALBION         CLEAR     56  51  85 SE3       29.99F
OMAHA EPPLEY   CLOUDY    64  50  60 SE10      30.02F
OFFUTT AFB     CLOUDY    62  56  80 SE9       30.02F
MILLARD        CLOUDY    64  52  65 SE7       30.01F
LINCOLN        CLOUDY    65  51  60 SE9       30.02S
NEBRASKA CITY  CLOUDY    62  47  56 SE6       30.03F
BEATRICE       CLOUDY    65  53  64 SE3       30.01F
FALLS CITY     CLOUDY    63  55  75 E5        30.03S

...NORTHERN KANSAS...

CITY           SKY/WX    TMP DP  RH WIND       PRES   REMARKS
GOODLAND       CLEAR     67  50  54 E5        30.03S
HILL CITY      CLEAR     65  60  84 E7        29.97R
NORTON         CLEAR     61  54  77 E7        29.98R
PHILLIPSBURG   CLEAR     64  55  72 E9        29.98S
SMITH CENTER   CLEAR     59  55  88 E10       29.99S
BELOIT         PTCLDY    63  55  77 E5        29.98F
HAYS           CLEAR     66  61  82 E6        29.96S
RUSSELL        CLEAR     68  62  81 SE10      29.95S
CONCORDIA      PTCLDY    60  55  83 SE3       30.00S
SALINA         CLEAR     69  60  73 SE8       29.98S
TOPEKA         CLOUDY    66  57  72 CALM      30.03S



USA.gov is the U.S. government's official web portal to all federal, state and local government web resources and services.